Content
SEND FEEDBACK

Daily
Averages
Monthly
Summary
United States of America

NEW YORK - CENTRAL PARK, NEW YORK


Home > North America > United States > New York
Elevation: 4 meters     Latitude: 40 47N     Longitude: 073 58W

WEATHER
 
SELECT A DAY
Number of Records: 148,358;   Date Range: 11/1/95 - 9/20/14
 
SHARE

PRINT THIS DATA

[ ← Previous Day ]
WEATHER ALMANAC - 21 APRIL, 2013
[ Next Day → ]
[ °F ]   °C
Weather ElementAverageHighLow
Temperature7.4 °C12.2 °C (2:51 pm)2.8 °C (5:51 am)
Dewpoint-6 °C-1.1 °C (11:51 pm)-9.4 °C (4:51 pm)
Humidity39.7 %56 % (11:51 pm)22 % (4:51 pm)
Barometer1033.9 hPa1036.9 hPa (11:51 pm)1028.1 hPa (1:51 am)
Wind Speed8.2 km/h18.5 km/h (8:51 am)
Wind Gust31.5 km/h (3:51 am)
Weather ElementAverage
Visibility16.1 km
Wind DirectionNNE (38.3 °)

Weather ElementTotal
Precipitation---
Heating Degree Days10.8 (Base 18.3)
Averaged from 23 records on 21 April, 2013
WEATHER CONDITIONS BREAKOUT
WIND DIRECTION BREAKOUT
WEATHER BY HOUR - 21 APRIL, 2013
[ °F ]   °C
Local TimeTemperatureDewpointHumidityBarometerVisibilityWind DirectionWind SpeedGust SpeedPrecipitationEventsConditions
1:51 AM5 °C-8.9 °C36 %1028.1 hPa16.1 kmWNW (300°)14.8 km/h27.8 km/hClear
2:51 AM4.4 °C-8.9 °C38 %1028.8 hPa16.1 kmVariable9.3 km/hClear
3:51 AM3.9 °C-7.8 °C43 %1029.5 hPa16.1 kmVariable11.1 km/h31.5 km/hClear
4:51 AM3.3 °C-7.2 °C47 %1030.1 hPa16.1 kmVariable9.3 km/hClear
5:51 AM2.8 °C-6.7 °C50 %1031.2 hPa16.1 kmCalmClear
6:51 AM2.8 °C-6.1 °C52 %1032.5 hPa16.1 kmVariable9.3 km/hClear
7:51 AM3.3 °C-6.7 °C48 %1033.9 hPa16.1 kmVariable5.6 km/hClear
8:51 AM4.4 °C-6.7 °C45 %1034.2 hPa16.1 kmENE (60°)18.5 km/hClear
9:51 AM6.1 °C-6.1 °C42 %1034.9 hPa16.1 kmENE (60°)14.8 km/hClear
10:51 AM7.8 °C-5.6 °C39 %1035.6 hPa16.1 kmVariable9.3 km/hClear
11:51 AM8.9 °C-5.6 °C36 %1035.6 hPa16.1 kmNE (50°)16.7 km/hClear
12:51 PM10.6 °C-5 °C33 %1035.2 hPa16.1 kmENE (70°)9.3 km/hClear
1:51 PM10.6 °C-7.2 °C28 %1035.2 hPa16.1 kmNorth (10°)11.1 km/hClear
2:51 PM12.2 °C-6.7 °C26 %1034.9 hPa16.1 kmNE (50°)16.7 km/h27.8 km/hClear
3:51 PM11.7 °C-7.8 °C25 %1034.2 hPa16.1 kmENE (70°)14.8 km/h27.8 km/hClear
4:51 PM11.7 °C-9.4 °C22 %1034.5 hPa16.1 kmNE (40°)9.3 km/hClear
5:51 PM11.7 °C-8.9 °C23 %1034.9 hPa16.1 kmCalmClear
6:51 PM9.4 °C-3.9 °C39 %1034.9 hPa16.1 kmCalmClear
7:51 PM8.3 °C-3.3 °C44 %1035.6 hPa16.1 kmSouth (170°)9.3 km/hClear
8:51 PM7.8 °C-3.3 °C46 %1036.2 hPa16.1 kmCalmClear
9:51 PM7.8 °C-2.8 °C47 %1036.6 hPa16.1 kmCalmClear
10:51 PM7.8 °C-2.8 °C47 %1036.6 hPa16.1 kmCalmClear
11:51 PM7.2 °C-1.1 °C56 %1036.9 hPa16.1 kmCalmClear
Hourly data recorded from KNYC, located 0 kilometers away from New York - Central Park, New York







STORIES FROM OUR PARTNERS